User: anonymous   Login
Location: Bambrugge
(50.9212°N, 3.9299°E)
Time: 04:42:34
(UTC+00:00)
Language:

Cosmos 1400 Rocket - Orbit

View from above orbital plane
View from above orbital plane
View from above satellite
View from above satellite

Ground track
Ground track

The orbit data is extracted from the following two-line orbital elements,

1 13403U 82079B   25133.55815572  .00005070  00000-0  22488-3 0  9998
2 13403  81.1482 186.3665 0027923  99.6193 260.8195 15.21042527332022
Epoch (UTC): 13 May 2025 13:23:44
Eccentricity: 0.0027923
inclination: 81.1482°
perigee height: 483 km
apogee height: 522 km
right ascension of ascending node: 186.3665°
argument of perigee: 99.6193°
revolutions per day: 15.21042527
mean anomaly at epoch: 260.8195°
orbit number at epoch: 33202

The dashed part of the orbit path shows where the satellite is in the earth's shadow,  

DLR